[[{"header":{"parameterUnit":"m.s-1","parameterCategory":1,"la1":30.2991,"la2":30.254,"lo1":-89.0895,"lo2":-89.0444,"dy":0.0017,"dx":0.0017,"nx":28,"ny":28,"refTime":"2023-08-20T03:00:00:Z","depth":0,"parameterNumber":2,"parameterNumberName":"U-component_of_WINDS"},"data":[0,0,0,0,0,0,0,0,0,0,0,0,0,0,0,0,0,0,0,0,0,0,0,0,0,0,0,0,0,0,0,0,0,0,0,0,0,0,0,0,0,0,0,0,0,0,0,0,0,0,0,0,0,0,0,0,0,0,-3.5201,-3.5202,0,-3.5313,-3.5314,-3.5315,-3.53,-3.5298,-3.5296,-3.5294,-3.5411,-3.5416,-3.542,0,0,0,0,0,0,0,0,0,0,0,0,0,-3.4978,-3.4982,-3.5201,-3.5202,-3.5204,-3.5312,-3.5314,-3.5315,-3.53,-3.5298,-3.5296,-3.5294,-3.5409,-3.5415,-3.5421,0,0,0,0,0,0,0,0,0,0,0,0,0,-3.5081,-3.4984,-3.5201,-3.5209,-3.5211,-3.5312,-3.5314,-3.5316,-3.5301,-3.5298,-3.5295,-3.5292,-3.5407,-3.5415,-3.5422,-3.5522,0,0,-3.5444,-3.5447,0,0,0,0,0,0,0,0,-3.5075,-3.5089,-3.5206,-3.5209,-3.5211,-3.5289,-3.5278,-3.5385,-3.5301,-3.5267,-3.5294,-3.5291,-3.5373,-3.5383,-3.541,-3.5528,-3.5533,-3.5444,-3.5449,-3.5452,-3.5454,0,0,0,0,0,0,0,-3.5068,-3.5084,-3.5245,-3.5208,-3.5211,-3.5209,-3.522,-3.5298,-3.5334,-3.5269,-3.5269,-3.5282,-3.5374,-3.5403,-3.5413,-3.5534,-3.5444,-3.5451,-3.5455,-3.5458,-3.5743,-3.5746,0,0,0,0,0,0,-3.5058,-3.5078,-3.5241,-3.5248,-3.5135,-3.5215,-3.5228,-3.5267,-3.5333,-3.5341,-3.5284,-3.5281,-3.5392,-3.5404,-3.5417,-3.5539,-3.5452,-3.5459,-3.5463,-3.574,-3.5744,-3.5747,0,0,0,0,0,0,-3.5053,-3.5073,-3.5237,-3.5163,-3.5184,-3.5222,-3.5266,-3.5271,-3.53,-3.5344,-3.5351,-3.5307,-3.539,-3.5406,-3.5496,-3.5543,-3.5462,-3.5469,-3.5736,-3.5741,-3.5745,-3.5785,0,0,0,0,0,0,-3.5047,-3.5071,-3.5108,-3.5164,-3.5188,-3.5314,-3.5269,-3.5275,-3.5312,-3.5309,-3.5368,-3.5375,-3.5389,-3.5486,-3.5504,-3.5552,-3.5474,-3.5732,-3.5738,-3.5744,-3.5779,-3.579,-3.58,0,0,0,0,0,-3.5039,-3.5115,-3.511,-3.513,-3.5235,-3.5316,-3.533,-3.5344,-3.5316,-3.5355,-3.5384,-3.5373,-3.5536,-3.5495,-3.5515,-3.5566,-3.5729,-3.5736,-3.5743,-3.5775,-3.5788,-3.58,0,0,0,0,0,0,-3.5064,-3.5122,-3.5118,-3.5214,-3.526,-3.5313,-3.5362,-3.5358,-3.5413,-3.5408,-3.5425,-3.5438,-3.5529,-3.5557,-3.5511,-3.5668,-3.5629,-3.564,-3.5646,-3.5659,-3.5669,-3.5659,-3.548,0,0,0,0,0,-3.5081,-3.5141,-3.5189,-3.5269,-3.5293,-3.5324,-3.536,-3.5367,-3.5416,-3.5435,-3.5471,-3.552,-3.5582,-3.5622,-3.5682,-3.5785,-3.5798,-3.583,-3.584,-3.5848,-3.5857,-3.5915,-3.593,-3.5771,-3.5771,-3.5771,0,0,-3.5115,-3.5155,-3.5192,-3.5275,-3.5312,-3.5375,-3.534,-3.5408,-3.5455,-3.5446,-3.5532,-3.5561,-3.5617,-3.5714,-3.5758,-3.574,-3.5905,-3.5857,-3.5864,-3.5868,-3.5924,-3.5939,-3.5952,-3.5776,-3.5775,-3.5774,0,0,-3.5211,-3.5247,-3.5317,-3.5356,-3.5412,-3.5433,-3.545,-3.5505,-3.5523,-3.5611,-3.5606,-3.5664,-3.577,-3.581,-3.5845,-3.5959,-3.5952,-3.5979,-3.6031,-3.6087,-3.6099,-3.6111,-3.6151,-3.6166,-3.5988,-3.5988,-3.5989,0,-3.5247,-3.534,-3.5355,-3.5424,-3.5461,-3.5457,-3.553,-3.5567,-3.564,-3.5667,-3.5645,-3.578,-3.5817,-3.5924,-3.5953,-3.5981,-3.6002,-3.5971,-3.6096,-3.6108,-3.6118,-3.6157,-3.6173,-3.5991,-3.5991,-3.5991,-3.599,0,-3.5382,-3.5447,-3.5498,-3.5568,-3.5612,-3.5683,-3.571,-3.5753,-3.5758,-3.5782,-3.5873,-3.5918,-3.5987,-3.6014,-3.6019,-3.6122,-3.6109,-3.6092,-3.6052,-3.6136,-3.6173,-3.6188,-3.5995,-3.5994,-3.5993,-3.5993,0,0,-3.5492,-3.5572,-3.559,-3.5623,-3.5687,-3.5738,-3.581,-3.5878,-3.5914,-3.5967,-3.6027,-3.612,-3.6105,-3.6144,-3.6155,-3.6204,-3.6293,-3.6182,-3.6183,-3.62,-3.641,-3.6422,-3.6439,-3.629,-3.6293,-3.6295,-3.6406,0,-3.5592,-3.5717,-3.5735,-3.5846,-3.5907,-3.5906,-3.5969,-3.6016,-3.6041,-3.6098,-3.6127,-3.6191,-3.6167,-3.6191,-3.624,-3.6272,-3.6335,-3.6264,-3.6347,-3.635,-3.6331,-3.6458,-3.647,-3.6571,-3.642,-3.6423,-3.6424,0,-3.5725,-3.5781,-3.5898,-3.5955,-3.5981,-3.6037,-3.6102,-3.6156,-3.621,-3.6225,-3.6271,-3.6276,-3.6353,-3.6312,-3.6418,-3.637,-3.6406,-3.6427,-3.6431,-3.6438,-3.639,-3.6467,-3.6604,-3.6619,-3.6448,-3.6446,-3.6444,0,-3.5793,-3.5898,-3.5982,-3.601,-3.6079,-3.6118,-3.6149,-3.62,-3.6241,-3.6298,-3.6325,-3.6391,-3.6427,-3.6479,-3.6503,-3.6471,-3.6608,-3.6569,-3.6623,-3.6622,-3.6649,-3.6647,-3.6793,-3.6675,-3.6675,-3.6675,-3.6675,0,-3.5903,-3.5974,-3.6013,-3.6064,-3.6146,-3.6167,-3.6247,-3.6277,-3.6323,-3.6382,-3.6386,-3.6441,-3.647,-3.6531,-3.655,-3.6636,-3.6652,-3.6667,-3.6671,-3.6666,-3.6664,-3.6688,-3.6681,-3.6679,-3.6678,-3.6677,-3.6677,0,-3.5991,-3.602,-3.6111,-3.617,-3.6186,-3.6243,-3.6294,-3.6345,-3.6371,-3.6445,-3.6464,-3.6505,-3.6577,-3.6607,-3.6694,-3.6708,-3.6806,-3.6805,-3.6787,-3.6788,-3.684,-3.6834,-3.7005,-3.7028,-3.6896,-3.6897,-3.6899,0,-3.6058,-3.6113,-3.6178,-3.6217,-3.6249,-3.6312,-3.6353,-3.6378,-3.6421,-3.6489,-3.6532,-3.6603,-3.6661,-3.6776,-3.6814,-3.6882,-3.6883,-3.6938,-3.6893,-3.6886,-3.6883,-3.6879,-3.6885,-3.6945,-3.6947,-3.6948,-3.6949,0,-3.6173,-3.6186,-3.6244,-3.631,-3.6359,-3.6411,-3.6463,-3.6495,-3.6528,-3.6577,-3.6649,-3.6695,-3.6785,-3.6856,-3.6927,-3.696,-3.6961,-3.6963,-3.6979,-3.6973,-3.696,-3.6968,-3.6808,-3.6959,-3.6958,-3.6957,-3.6956,-3.6956,-3.6253,-3.6302,-3.6355,-3.6422,-3.6463,-3.6512,-3.6563,-3.6596,-3.6657,-3.6731,-3.6743,-3.6821,-3.6877,-3.6972,-3.7009,-3.7071,-3.7057,-3.708,-3.7086,-3.7091,-3.7094,-3.6952,-3.7084,-3.7084,-3.7084,-3.7084,-3.7084,0,-3.6368,-3.6403,-3.6464,-3.6536,-3.6588,-3.6585,-3.6642,-3.6687,-3.6755,-3.6807,-3.6864,-3.6949,-3.7019,-3.7065,-3.7136,-3.7177,-3.718,-3.7195,-3.7192,-3.72,-3.7103,-3.7081,-3.7192,-3.7192,-3.7192,-3.7192,-3.7192,-3.7192,-3.6434,-3.6517,-3.6537,-3.6642,-3.6677,-3.6753,-3.6786,-3.6832,-3.6873,-3.6967,-3.7025,-3.7054,-3.7105,-3.718,-3.7245,-3.7256,-3.7282,-3.7299,-3.7309,-3.7218,-3.7206,-3.7195,-3.7175,-3.7304,-3.7304,-3.7401,-3.7402,-3.7403]},{"header":{"parameterUnit":"m.s-1","parameterCategory":1,"la1":30.2991,"la2":30.254,"lo1":-89.0895,"lo2":-89.0444,"dy":0.0017,"dx":0.0017,"nx":28,"ny":28,"refTime":"2023-08-20T03:00:00:Z","depth":0,"parameterNumber":3,"parameterNumberName":"V-component_of_WINDS"},"data":[0,0,0,0,0,0,0,0,0,0,0,0,0,0,0,0,0,0,0,0,0,0,0,0,0,0,0,0,0,0,0,0,0,0,0,0,0,0,0,0,0,0,0,0,0,0,0,0,0,0,0,0,0,0,0,0,0,0,3.1624,3.1625,0,3.1685,3.1686,3.1686,3.1725,3.1726,3.1726,3.1726,3.1783,3.1785,3.1786,0,0,0,0,0,0,0,0,0,0,0,0,0,3.1538,3.154,3.1624,3.1625,3.1626,3.1685,3.1686,3.1687,3.1725,3.1726,3.1726,3.1726,3.1783,3.1784,3.1786,0,0,0,0,0,0,0,0,0,0,0,0,0,3.1585,3.154,3.1624,3.1652,3.1656,3.1685,3.1686,3.1687,3.1725,3.1726,3.1726,3.1726,3.1782,3.1784,3.1786,3.1791,0,0,3.1792,3.1793,0,0,0,0,0,0,0,0,3.1582,3.1588,3.1648,3.1651,3.1654,3.1698,3.1677,3.1721,3.1725,3.1699,3.1726,3.1726,3.1754,3.1759,3.1769,3.1793,3.1796,3.1792,3.1794,3.1794,3.1795,0,0,0,0,0,0,0,3.1579,3.1586,3.1648,3.1648,3.1652,3.1661,3.1668,3.1685,3.1723,3.1701,3.1704,3.1711,3.1756,3.1767,3.1771,3.1797,3.1792,3.1794,3.1795,3.1796,3.1828,3.1828,0,0,0,0,0,0,3.1572,3.1583,3.1646,3.165,3.1619,3.1662,3.167,3.1683,3.1723,3.173,3.171,3.1712,3.1764,3.1768,3.1773,3.1781,3.1794,3.1796,3.1797,3.1828,3.1828,3.1828,0,0,0,0,0,0,3.157,3.1577,3.1644,3.1617,3.1626,3.1663,3.1678,3.1684,3.1695,3.1731,3.1737,3.1715,3.1764,3.177,3.1786,3.1783,3.1797,3.1799,3.1829,3.1828,3.1828,3.1797,0,0,0,0,0,0,3.1567,3.1576,3.1579,3.1617,3.1628,3.1657,3.1678,3.1685,3.1699,3.1702,3.1736,3.1742,3.1765,3.1783,3.1788,3.1786,3.18,3.1829,3.1828,3.1828,3.1798,3.1795,3.1793,0,0,0,0,0,3.1564,3.1567,3.1579,3.1587,3.1632,3.1657,3.1663,3.169,3.1699,3.1702,3.1724,3.1741,3.1783,3.1785,3.1791,3.1789,3.1829,3.1829,3.1828,3.18,3.1796,3.1793,0,0,0,0,0,0,3.1526,3.1572,3.1586,3.1602,3.1626,3.1664,3.1668,3.1685,3.1706,3.1708,3.1739,3.1746,3.176,3.1776,3.1777,3.1796,3.1808,3.1809,3.1785,3.1782,3.1779,3.1774,3.1802,0,0,0,0,0,3.1519,3.1537,3.1576,3.1586,3.1597,3.1631,3.1642,3.1662,3.1687,3.1696,3.172,3.1743,3.1761,3.1772,3.1791,3.1801,3.1809,3.1803,3.18,3.1798,3.1798,3.1805,3.1803,3.1825,3.1825,3.1825,0,0,3.1506,3.1533,3.1542,3.1579,3.16,3.1616,3.1639,3.1655,3.1667,3.1698,3.1716,3.1734,3.1761,3.1774,3.1781,3.1789,3.1793,3.1797,3.1795,3.1796,3.1804,3.1801,3.18,3.1825,3.1825,3.1825,0,0,3.149,3.1513,3.1524,3.1544,3.1576,3.1598,3.1601,3.1637,3.1651,3.1669,3.1693,3.1707,3.1738,3.1757,3.177,3.1762,3.1778,3.1767,3.1753,3.1759,3.1757,3.1756,3.1753,3.1751,3.1767,3.1767,3.1767,0,3.1468,3.1496,3.1526,3.1542,3.1557,3.1588,3.1599,3.1617,3.1652,3.1661,3.1669,3.1709,3.173,3.1748,3.1746,3.1756,3.176,3.1763,3.1755,3.1754,3.1753,3.1751,3.1749,3.1765,3.1765,3.1765,3.1766,0,3.1468,3.1486,3.1491,3.1527,3.1542,3.1555,3.1587,3.1599,3.1617,3.1638,3.1656,3.1682,3.1707,3.1713,3.1729,3.1733,3.1737,3.1749,3.1762,3.1749,3.1747,3.1746,3.1763,3.1763,3.1764,3.1764,0,0,3.1428,3.1482,3.1483,3.15,3.1537,3.1551,3.1565,3.1591,3.1601,3.1624,3.1637,3.1663,3.1675,3.169,3.1709,3.1715,3.1707,3.1727,3.1728,3.1722,3.1713,3.1703,3.1701,3.1719,3.1719,3.1718,3.1711,0,3.1417,3.1446,3.1475,3.1493,3.151,3.154,3.1552,3.1576,3.1596,3.1613,3.1634,3.1653,3.1668,3.1677,3.1684,3.1707,3.1706,3.1708,3.1729,3.1729,3.1721,3.1701,3.169,3.1681,3.171,3.171,3.171,0,3.1408,3.1432,3.1453,3.1489,3.1498,3.1508,3.1535,3.1551,3.1578,3.1592,3.161,3.1631,3.1646,3.1658,3.168,3.168,3.1691,3.1703,3.1704,3.1706,3.1718,3.1702,3.1679,3.1678,3.1709,3.1709,3.1709,0,3.1377,3.1414,3.1432,3.1445,3.1488,3.1495,3.1513,3.1541,3.1555,3.1578,3.1587,3.161,3.1623,3.164,3.1667,3.1673,3.1685,3.1699,3.1696,3.1696,3.1697,3.1697,3.1675,3.1704,3.1704,3.1704,3.1705,0,3.1362,3.1373,3.1419,3.1429,3.1442,3.1475,3.1486,3.1507,3.1532,3.1546,3.1572,3.1585,3.1619,3.1635,3.1656,3.167,3.1676,3.1687,3.1692,3.1685,3.1683,3.1691,3.1692,3.1704,3.1704,3.1704,3.1704,0,3.1329,3.136,3.1381,3.1421,3.1431,3.1439,3.1473,3.1483,3.1506,3.1523,3.1529,3.1563,3.1584,3.1612,3.1641,3.1655,3.1666,3.1675,3.1658,3.1661,3.1657,3.1656,3.1639,3.1639,3.1668,3.1668,3.1668,0,3.1317,3.1327,3.1368,3.1381,3.1398,3.1417,3.1433,3.1465,3.1479,3.1512,3.1518,3.1541,3.1561,3.1593,3.1619,3.1642,3.1651,3.1643,3.1654,3.1646,3.165,3.1649,3.165,3.164,3.164,3.1639,3.1639,0,3.1293,3.1308,3.1329,3.1356,3.1374,3.1396,3.1419,3.1427,3.1464,3.1479,3.1501,3.1517,3.1548,3.157,3.1596,3.1613,3.1632,3.1636,3.1636,3.1628,3.1617,3.1623,3.165,3.1636,3.1636,3.1636,3.1636,3.1636,3.127,3.128,3.1311,3.1334,3.1355,3.1377,3.1389,3.1414,3.1434,3.1462,3.148,3.1501,3.1528,3.1566,3.1582,3.1599,3.1606,3.1607,3.1607,3.1607,3.1604,3.1615,3.1604,3.1604,3.1604,3.1604,3.1604,0,3.1246,3.1268,3.1289,3.1322,3.134,3.1358,3.1385,3.1399,3.1418,3.1442,3.1462,3.1488,3.151,3.1539,3.1563,3.1571,3.158,3.1576,3.1575,3.1579,3.1596,3.1593,3.1568,3.1568,3.1568,3.1568,3.1568,3.1568,3.1236,3.1255,3.1274,3.1302,3.1324,3.1347,3.136,3.138,3.14,3.1428,3.1447,3.1467,3.1493,3.1519,3.154,3.1548,3.1555,3.1548,3.1559,3.1574,3.1577,3.1581,3.1578,3.155,3.155,3.154,3.154,3.154]}]]